Regional Weather Roundup
Issued by NWS Sioux Falls, SD

Home | Current Version | Previous Version | Graphics & Text | Print | Product List | Glossary Off
Versions: 1 2 3 4 5 6 7 8 9 10 11 12 13 14 15 16 17 18 19 20 21 22 23 24 25 26 27 28 29 30 31 32 33 34 35 36 37 38 39 40 41 42 43 44 45 46 47 48 49 50

000
ASUS43 KFSD 250310
RWRFSD

WEATHER ROUNDUP FOR SE SOUTH DAKOTA/SW MINNESOTA/NW IOWA
NATIONAL WEATHER SERVICE SIOUX FALLS SD
1000 PM CDT SAT JUN 24 2017

NOTE: "FAIR" INDICATES FEW OR NO CLOUDS BELOW 12,000 FEET WITH NO
SIGNIFICANT WEATHER AND OR OBSTRUCTIONS TO VISIBILITY.


SDZ038>040-050-052>070-250400-
SOUTHEAST SOUTH DAKOTA

CITY           SKY/WX    TMP DP  RH WIND       PRES   REMARKS
BROOKINGS      CLOUDY    57  44  62 NW12      30.19R
CHAMBERLAIN    CLEAR     63  39  42 N8        30.24R
HURON          CLEAR     56  44  64 N9        30.23R
MADISON        FAIR      55  43  62 N10       30.21R
MITCHELL       CLEAR     60  42  51 N12       30.23R
SIOUX FALLS    PTCLDY    58  42  55 NW10      30.18R
WINNER         FAIR      60  37  42 NE9       30.25R
YANKTON        CLEAR     59  41  51 N8        30.19R
$$

MNZ071-072-080-081-089-090-097-098-250400-
SOUTHWEST MINNESOTA

CITY           SKY/WX    TMP DP  RH WIND       PRES   REMARKS
FAIRMONT       CLEAR     58  41  53 NW9       30.13R
JACKSON        CLEAR     55  39  54 NW8       30.15R
LUVERNE        CLEAR     55  37  50 N6        30.17R
MARSHALL       MOCLDY    59  43  55 NW15      30.15R
MONTEVIDEO     CLOUDY    59  45  58 N13G22    30.15R
PIPESTONE      PTCLDY    59  41  51 N12       30.18R
REDWOOD FALLS  CLEAR     59  42  53 NW13      30.13R
TRACY          CLOUDY    60  44  54 NW9       30.15R
WINDOM         CLEAR     55  39  54 NW8       30.15R
WORTHINGTON    CLEAR     55  41  59 NW8       30.17R
$$

IAZ001>003-012>014-020>022-031-032-NEZ013-014-SDZ071-250400-
NORTHWEST IOWA

CITY           SKY/WX    TMP DP  RH WIND       PRES   REMARKS
CHEROKEE       CLEAR     59  43  55 NW3       30.16R
DENISON        CLEAR     61  39  44 N6        30.17R
ESTHERVILLE    CLEAR     54  43  66 NW7       30.13R
LE MARS        CLEAR     61  41  48 NW7       30.17R
ORANGE CITY    CLEAR     61  43  51 N7        30.17R
SHELDON        CLEAR     57  41  54 NW8       30.15R
SIOUX CITY     CLEAR     63  41  44 N10       30.16R
SPENCER        CLEAR     54  43  66 NW7       30.15R
STORM LAKE     CLEAR     59  43  55 NW7       30.16R
$$

ABBREVIATIONS USED IN REMARKS
   TC - TEMPERATURE IN CELSIUS
  WCI - WIND CHILL INDEX
   HX - HEAT INDEX
  VSB - VISIBILITY





USA.gov is the U.S. government's official web portal to all federal, state and local government web resources and services.